When you browse on this site, cookies collect data to enhance your experience and personalize the content and advertising you see.
Visit our Privacy Policy to learn more. By continuing to use the site, you agree to this use of cookies and data.
  • In Czech Republic
  • List of Countries
  • For 7 days
  • Water Temperature
  • Satellite Maps
  • Weather Map
  • Weather Widgets
  • user-avatar
    Login

    Hourly Weather Mission

    Today, 17 February, Sunday

    Time Temperature Precipitation Wind Pressure Humidity
    00:00 +25°C° 0 mm 4 mps 748 mmHg 85%
    01:00 +25°C° 0 mm 4 mps 748 mmHg 86%
    02:00 +25°C° 0 mm 3 mps 748 mmHg 86%
    03:00 +25°C° 0 mm 3 mps 748 mmHg 88%
    04:00 +24°C° 0 mm 2 mps 748 mmHg 90%
    05:00 +24°C° 0 mm 2 mps 749 mmHg 92%
    06:00 +24°C° 0 mm 2 mps 750 mmHg 90%
    07:00 +25°C° 0 mm 2 mps 750 mmHg 88%
    08:00 +25°C° 0 mm 3 mps 751 mmHg 87%
    09:00 +25°C° 0.1 mm 4 mps 751 mmHg 84%
    10:00 +25°C° 0.1 mm 5 mps 752 mmHg 82%
    11:00 +23°C° 0.1 mm 6 mps 752 mmHg 79%
    12:00 +26°C° 0 mm 6 mps 752 mmHg 71%
    13:00 +28°C° 0 mm 6 mps 752 mmHg 64%
    14:00 +29°C° 0 mm 5 mps 752 mmHg 56%
    15:00 +28°C° 0 mm 6 mps 752 mmHg 56%
    16:00 +27°C° 0 mm 6 mps 752 mmHg 57%
    17:00 +26°C° 0 mm 6 mps 753 mmHg 57%
    18:00 +24°C° 0 mm 6 mps 754 mmHg 58%
    19:00 +22°C° 0 mm 6 mps 754 mmHg 58%
    20:00 +21°C° 0 mm 5 mps 755 mmHg 58%
    21:00 +20°C° 0 mm 5 mps 756 mmHg 57%
    22:00 +20°C° 0 mm 5 mps 756 mmHg 56%
    23:00 +19°C° 0 mm 4 mps 757 mmHg 54%

    Tomorrow, 18 February, Monday

    Time Temperature Precipitation Wind Pressure Humidity
    00:00 +19°C° 0 mm 4 mps 757 mmHg 54%
    01:00 +17°C° 0 mm 5 mps 757 mmHg 54%
    02:00 +17°C° 0 mm 5 mps 757 mmHg 54%
    03:00 +17°C° 0 mm 5 mps 757 mmHg 55%
    04:00 +16°C° 0 mm 5 mps 757 mmHg 56%
    05:00 +16°C° 0 mm 5 mps 757 mmHg 57%
    06:00 +15°C° 0 mm 5 mps 758 mmHg 58%
    07:00 +15°C° 0 mm 5 mps 759 mmHg 59%
    08:00 +15°C° 0 mm 6 mps 760 mmHg 59%
    09:00 +15°C° 0 mm 5 mps 760 mmHg 60%
    10:00 +15°C° 0 mm 5 mps 760 mmHg 61%
    11:00 +15°C° 0 mm 5 mps 760 mmHg 62%
    12:00 +16°C° 0 mm 5 mps 759 mmHg 63%
    13:00 +16°C° 0 mm 5 mps 759 mmHg 65%
    14:00 +16°C° 0 mm 5 mps 758 mmHg 66%
    15:00 +17°C° 0 mm 5 mps 758 mmHg 69%
    16:00 +17°C° 0 mm 5 mps 758 mmHg 71%
    17:00 +17°C° 0 mm 5 mps 757 mmHg 74%
    18:00 +16°C° 0.1 mm 5 mps 758 mmHg 76%
    19:00 +16°C° 0.1 mm 5 mps 758 mmHg 78%
    20:00 +16°C° 0.1 mm 5 mps 758 mmHg 80%
    21:00 +16°C° 0.1 mm 5 mps 758 mmHg 81%
    22:00 +17°C° 0.1 mm 4 mps 758 mmHg 83%
    23:00 +17°C° 0.1 mm 3 mps 758 mmHg 84%

    Day after tomorrow, 19 February, Tuesday

    Time Temperature Precipitation Wind Pressure Humidity
    00:00 +17°C° 0.1 mm 3 mps 757 mmHg 85%
    01:00 +17°C° 0.1 mm 3 mps 756 mmHg 86%
    02:00 +17°C° 0.1 mm 3 mps 756 mmHg 87%
    03:00 +17°C° 0.1 mm 3 mps 755 mmHg 86%
    04:00 +17°C° 0.1 mm 3 mps 755 mmHg 86%
    05:00 +16°C° 0.1 mm 3 mps 754 mmHg 86%
    06:00 +17°C° 0 mm 3 mps 754 mmHg 84%
    07:00 +17°C° 0 mm 3 mps 755 mmHg 83%
    08:00 +18°C° 0 mm 3 mps 755 mmHg 81%
    09:00 +20°C° 0 mm 2 mps 754 mmHg 77%
    10:00 +22°C° 0 mm 1 mps 754 mmHg 73%
    11:00 +22°C° 0 mm 0 mps 754 mmHg 69%
    12:00 +25°C° 0 mm 1 mps 753 mmHg 64%
    13:00 +27°C° 0 mm 1 mps 752 mmHg 59%
    14:00 +28°C° 0 mm 2 mps 751 mmHg 54%
    15:00 +28°C° 0 mm 2 mps 751 mmHg 54%
    16:00 +29°C° 0 mm 2 mps 751 mmHg 55%
    17:00 +29°C° 0 mm 2 mps 751 mmHg 55%
    18:00 +27°C° 0 mm 2 mps 751 mmHg 61%
    19:00 +26°C° 0 mm 3 mps 752 mmHg 67%
    20:00 +25°C° 0 mm 4 mps 752 mmHg 73%
    21:00 +23°C° 0 mm 4 mps 752 mmHg 77%
    22:00 +23°C° 0 mm 4 mps 752 mmHg 82%
    23:00 +22°C° 0 mm 5 mps 752 mmHg 86%

    20 February, Wednesday

    Time Temperature Precipitation Wind Pressure Humidity
    00:00 +22°C° 0.1 mm 4 mps 752 mmHg 87%
    01:00 +22°C° 0.1 mm 3 mps 752 mmHg 87%
    02:00 +23°C° 0.1 mm 2 mps 752 mmHg 88%
    03:00 +22°C° 1.4 mm 4 mps 753 mmHg 87%
    04:00 +21°C° 1.4 mm 5 mps 753 mmHg 85%
    05:00 +20°C° 1.4 mm 6 mps 754 mmHg 84%
    06:00 +19°C° 0.4 mm 6 mps 754 mmHg 83%
    07:00 +19°C° 0.4 mm 6 mps 755 mmHg 81%
    08:00 +17°C° 0.4 mm 6 mps 756 mmHg 80%
    09:00 +17°C° 0.2 mm 6 mps 756 mmHg 78%
    10:00 +17°C° 0.2 mm 6 mps 756 mmHg 76%
    11:00 +17°C° 0.2 mm 6 mps 757 mmHg 74%
    12:00 +19°C° 0 mm 6 mps 756 mmHg 69%
    13:00 +19°C° 0 mm 6 mps 755 mmHg 64%
    14:00 +20°C° 0 mm 6 mps 754 mmHg 59%
    15:00 +20°C° 0 mm 6 mps 754 mmHg 60%
    16:00 +19°C° 0 mm 5 mps 754 mmHg 61%
    17:00 +19°C° 0 mm 5 mps 753 mmHg 62%
    18:00 +17°C° 0 mm 5 mps 754 mmHg 65%
    19:00 +17°C° 0 mm 5 mps 754 mmHg 68%
    20:00 +17°C° 0 mm 5 mps 754 mmHg 70%
    21:00 +18°C° 0 mm 4 mps 754 mmHg 72%
    22:00 +18°C° 0 mm 3 mps 754 mmHg 74%
    23:00 +18°C° 0 mm 3 mps 754 mmHg 75%

    21 February, Thursday

    Time Temperature Precipitation Wind Pressure Humidity
    00:00 +17°C° 0.1 mm 3 mps 753 mmHg 76%
    01:00 +17°C° 0.1 mm 3 mps 753 mmHg 77%
    02:00 +17°C° 0.1 mm 3 mps 752 mmHg 78%
    03:00 +17°C° 0 mm 4 mps 752 mmHg 77%
    04:00 +17°C° 0 mm 4 mps 753 mmHg 76%
    05:00 +17°C° 0 mm 4 mps 753 mmHg 75%
    06:00 +17°C° 0 mm 3 mps 753 mmHg 75%
    07:00 +17°C° 0 mm 3 mps 754 mmHg 74%
    08:00 +17°C° 0 mm 3 mps 754 mmHg 74%
    09:00 +19°C° 0 mm 2 mps 754 mmHg 69%
    10:00 +21°C° 0 mm 2 mps 754 mmHg 65%
    11:00 +23°C° 0 mm 1 mps 754 mmHg 60%
    12:00 +24°C° 0 mm 2 mps 753 mmHg 58%
    13:00 +26°C° 0 mm 2 mps 752 mmHg 55%
    14:00 +27°C° 0 mm 2 mps 751 mmHg 53%
    15:00 +26°C° 0 mm 2 mps 751 mmHg 56%
    16:00 +26°C° 0 mm 3 mps 752 mmHg 59%
    17:00 +25°C° 0 mm 4 mps 752 mmHg 62%
    18:00 +23°C° 0 mm 4 mps 752 mmHg 68%
    19:00 +22°C° 0 mm 4 mps 753 mmHg 73%
    20:00 +21°C° 0 mm 4 mps 754 mmHg 79%
    21:00 +20°C° 0 mm 3 mps 754 mmHg 82%
    22:00 +20°C° 0 mm 3 mps 754 mmHg 86%
    23:00 +19°C° 0 mm 3 mps 754 mmHg 89%

    22 February, Friday

    Time Temperature Precipitation Wind Pressure Humidity
    00:00 +20°C° 0 mm 2 mps 754 mmHg 90%
    01:00 +20°C° 0 mm 2 mps 753 mmHg 90%
    02:00 +20°C° 0 mm 2 mps 753 mmHg 91%
    03:00 +20°C° 0 mm 2 mps 753 mmHg 91%
    04:00 +20°C° 0 mm 2 mps 753 mmHg 90%
    05:00 +21°C° 0 mm 2 mps 754 mmHg 90%
    06:00 +21°C° 0 mm 2 mps 754 mmHg 90%
    07:00 +21°C° 0 mm 2 mps 755 mmHg 89%
    08:00 +22°C° 0 mm 1 mps 755 mmHg 89%
    09:00 +23°C° 0 mm 1 mps 755 mmHg 86%
    10:00 +24°C° 0 mm 1 mps 755 mmHg 83%
    11:00 +25°C° 0 mm 1 mps 755 mmHg 79%
    12:00 +25°C° 0 mm 1 mps 754 mmHg 78%
    13:00 +25°C° 0 mm 2 mps 753 mmHg 76%
    14:00 +26°C° 0 mm 2 mps 753 mmHg 74%
    15:00 +26°C° 0 mm 3 mps 753 mmHg 76%
    16:00 +26°C° 0 mm 3 mps 753 mmHg 78%
    17:00 +25°C° 0 mm 4 mps 753 mmHg 79%
    18:00 +25°C° 0 mm 3 mps 753 mmHg 82%
    19:00 +24°C° 0 mm 3 mps 754 mmHg 85%
    20:00 +24°C° 0 mm 3 mps 754 mmHg 88%
    21:00 +22°C° 0 mm 3 mps 754 mmHg 91%
    22:00 +22°C° 0 mm 3 mps 754 mmHg 93%
    23:00 +23°C° 0 mm 2 mps 754 mmHg 96%
    Show more